Torna al catalogo

NOAA 16 DEB

AttivoPO
NORAD 41141·DEBRIS·🇺🇸 United States

Lanciato Sep 21, 2000 da Vandenberg Space Force Base

Loading…

Prossimi Passaggi (prossime 24 ore)

TLE

AggiornatoSource: Space-Track

Epoca: Sep 13, 2026, 18:10 UTC

1 41141U 00055BY  26256.75755269  .00012602  00000-0  19404-2 0  9999
2 41141  98.9670 187.1136 0036807  79.2425 281.2920 14.73154493565205

Traccia NOAA 16 DEB in tempo reale con AllMySat

Download on the App Store